^^
Station Historical Data
Daily Summary for January 30, 2017 Units:  Metric    English   Both
« Previous Day
Next Day »
Daily Weekly Monthly Yearly Custom
  High: Low: Average:
Temperature: -17.8 °C -17.7 °C -17.4 °C
Dew Point: -17.8 °C -18.3 °C -17.9 °C
Humidity: Humidity% 92% 92%
Wind Speed: 0km/h 0km/h 1.3km/h
Wind Gust: 0km/h - -
Wind- - SSW
Pressure: 0 hPa 34303.6 hPa -
Precipitation: 83.82 mm    
Historical Graphs
 
 
Tabular Data for January 30, 2017
Time Temperature Dew Point Pressure Wind Wind Speed Wind Gust Humidity Rainfall Rate (Hourly) solar Conditions
-17.8 °C -17.8 °C 0 hPa Calm     Humidity% 0 mm SoftwareType W/m2 Conditions
00:02 -17.7 °C -18.2 °C 34395 hPa SSW 3.4 km/h 20.9 km/h 93% 0 mm WeatherDisplay:10.37 W/m2 RA
00:07 -17.7 °C -18.2 °C 34395 hPa SSE 3.4 km/h 11.9 km/h 93% 0 mm WeatherDisplay:10.37 W/m2 RA
00:12 -17.7 °C -18.2 °C 34395 hPa SSW 2.9 km/h 9 km/h 93% 0 mm WeatherDisplay:10.37 W/m2 FEW
00:17 -17.7 °C -18.2 °C 34395 hPa Calm   11.9 km/h 93% 0 mm WeatherDisplay:10.37 W/m2 FEW
00:22 -17.7 °C -18.2 °C 34395 hPa South 6.8 km/h 10.3 km/h 93% 0 mm WeatherDisplay:10.37 W/m2 FEW
00:27 -17.7 °C -18.2 °C 34395 hPa South 3.1 km/h 9 km/h 93% 0 mm WeatherDisplay:10.37 W/m2 FEW
00:32 -17.6 °C -18.2 °C 34384.8 hPa SE 11.1 km/h 29.8 km/h 93% 0 mm WeatherDisplay:10.37 W/m2 FEW
00:37 -17.6 °C -18.2 °C 34395 hPa SSE 9.3 km/h 20.9 km/h 93% 0 mm WeatherDisplay:10.37 W/m2 FEW
00:42 -17.6 °C -18.2 °C 34384.8 hPa South 0.3 km/h 9 km/h 93% 0 mm WeatherDisplay:10.37 W/m2 FEW
00:47 -17.6 °C -18.2 °C 34395 hPa WSW 1.6 km/h 23.8 km/h 93% 0 mm WeatherDisplay:10.37 W/m2 FEW
00:52 -17.6 °C -18.2 °C 34384.8 hPa SE 6.4 km/h 15.6 km/h 93% 0 mm WeatherDisplay:10.37 W/m2 FEW
00:57 -17.6 °C -18.2 °C 34384.8 hPa SE 4.7 km/h 9 km/h 93% 0 mm WeatherDisplay:10.37 W/m2 FEW
01:02 -17.6 °C -18.2 °C 34384.8 hPa South 4.3 km/h 11.9 km/h 93% 0 mm WeatherDisplay:10.37 W/m2 FEW
01:07 -17.6 °C -18.2 °C 34384.8 hPa NNE 0.8 km/h 3.1 km/h 93% 0 mm WeatherDisplay:10.37 W/m2 FEW
01:12 -17.6 °C -18.2 °C 34384.8 hPa South 1.8 km/h 23.8 km/h 93% 0 mm WeatherDisplay:10.37 W/m2 FEW
01:17 -17.6 °C -18.2 °C 34384.8 hPa SSW 0.5 km/h 3.1 km/h 93% 0 mm WeatherDisplay:10.37 W/m2 FEW
01:22 -17.6 °C -18.2 °C 34384.8 hPa South 3.4 km/h 11.9 km/h 93% 0 mm WeatherDisplay:10.37 W/m2 FEW
01:27 -17.6 °C -18.2 °C 34384.8 hPa SSW 4.3 km/h 10.3 km/h 93% 0 mm WeatherDisplay:10.37 W/m2 FEW
01:32 -17.6 °C -18.2 °C 34384.8 hPa ENE 3.9 km/h 15 km/h 93% 0 mm WeatherDisplay:10.37 W/m2 FEW
01:37 -17.7 °C -18.2 °C 34384.8 hPa SSE 4.7 km/h 10.3 km/h 93% 0 mm WeatherDisplay:10.37 W/m2 FEW
01:42 -17.6 °C -18.2 °C 34384.8 hPa SSW 6 km/h 25.9 km/h 93% 0 mm WeatherDisplay:10.37 W/m2 FEW
01:47 -17.6 °C -18.2 °C 34384.8 hPa SW 6.8 km/h 10.3 km/h 93% 0 mm WeatherDisplay:10.37 W/m2 FEW
01:52 -17.6 °C -18.3 °C 34384.8 hPa SW 5 km/h 11.9 km/h 92% 0 mm WeatherDisplay:10.37 W/m2 FEW
01:57 -17.7 °C -18.3 °C 34371.3 hPa South 1.6 km/h 9 km/h 92% 0 mm WeatherDisplay:10.37 W/m2 FEW
02:02 -17.7 °C -18.3 °C 34384.8 hPa Calm   3.1 km/h 92% 0 mm WeatherDisplay:10.37 W/m2 FEW
02:07 -17.7 °C -18.2 °C 34371.3 hPa South 4.2 km/h 9 km/h 93% 0 mm WeatherDisplay:10.37 W/m2 FEW
02:12 -17.6 °C -18.2 °C 34371.3 hPa Calm   9 km/h 93% 0 mm WeatherDisplay:10.37 W/m2 FEW
02:17 -17.7 °C -18.2 °C 34371.3 hPa Calm   6 km/h 93% 0 mm WeatherDisplay:10.37 W/m2 FEW
02:22 -17.7 °C -18.3 °C 34371.3 hPa South 3.1 km/h 15 km/h 92% 0 mm WeatherDisplay:10.37 W/m2 FEW
02:27 -17.6 °C -18.2 °C 34371.3 hPa South 0.3 km/h 5.1 km/h 93% 0 mm WeatherDisplay:10.37 W/m2 FEW
02:32 -17.6 °C -18.2 °C 34371.3 hPa East 0.5 km/h 5.1 km/h 93% 0 mm WeatherDisplay:10.37 W/m2 FEW
02:37 -17.6 °C -18.2 °C 34371.3 hPa Calm   11.9 km/h 93% 7.62 mm WeatherDisplay:10.37 W/m2 RA
02:42 -17.6 °C -18.2 °C 34371.3 hPa SSW 0.3 km/h   93% 7.62 mm WeatherDisplay:10.37 W/m2 RA
02:47 -17.6 °C -18.2 °C 34361.1 hPa South 3.4 km/h 17.9 km/h 93% 7.62 mm WeatherDisplay:10.37 W/m2 FEW
02:52 -17.6 °C -18.2 °C 34371.3 hPa SW 6.3 km/h 6.3 km/h 93% 7.62 mm WeatherDisplay:10.37 W/m2 FEW
02:57 -17.6 °C -18.2 °C 34371.3 hPa SE 0.8 km/h 17.9 km/h 93% 7.62 mm WeatherDisplay:10.37 W/m2 FEW
03:02 -17.6 °C -18.2 °C 34361.1 hPa SW 6.4 km/h 15.6 km/h 93% 7.62 mm WeatherDisplay:10.37 W/m2 FEW
03:07 -17.6 °C -18.2 °C 34371.3 hPa West 11.4 km/h 26.9 km/h 92% 7.62 mm WeatherDisplay:10.37 W/m2 FEW
03:12 -17.6 °C -18.2 °C 34361.1 hPa North 3.1 km/h   92% 7.62 mm WeatherDisplay:10.37 W/m2 FEW
03:17 -17.6 °C -18.2 °C 34361.1 hPa SSW 0.5 km/h 6 km/h 92% 7.62 mm WeatherDisplay:10.37 W/m2 FEW
03:22 -17.6 °C -18.2 °C 34361.1 hPa South 4.7 km/h 9 km/h 92% 7.62 mm WeatherDisplay:10.37 W/m2 FEW
03:27 -17.6 °C -18.2 °C 34361.1 hPa South 1 km/h 9 km/h 92% 7.62 mm WeatherDisplay:10.37 W/m2 FEW
03:32 -17.6 °C -18.2 °C 34347.6 hPa SW 5 km/h 6 km/h 92% 7.62 mm WeatherDisplay:10.37 W/m2 FEW
03:37 -17.6 °C -18.2 °C 34347.6 hPa SSE 5.5 km/h 17.9 km/h 92% 7.62 mm WeatherDisplay:10.37 W/m2 RA
03:42 -17.6 °C -18.2 °C 34347.6 hPa Calm     92% 7.62 mm WeatherDisplay:10.37 W/m2 RA
03:47 -17.6 °C -18.2 °C 34347.6 hPa Calm     92% 7.62 mm WeatherDisplay:10.37 W/m2 FEW
03:52 -17.6 °C -18.2 °C 34347.6 hPa Calm   3.1 km/h 92% 7.62 mm WeatherDisplay:10.37 W/m2 FEW
03:57 -17.6 °C -18.2 °C 34347.6 hPa South 1.3 km/h 15 km/h 92% 7.62 mm WeatherDisplay:10.37 W/m2 FEW
04:02 -17.6 °C -18.2 °C 34347.6 hPa SSW 1.3 km/h 6 km/h 92% 7.62 mm WeatherDisplay:10.37 W/m2 FEW
04:07 -17.6 °C -18.2 °C 34347.6 hPa SSW 1.3 km/h 9 km/h 92% 7.62 mm WeatherDisplay:10.37 W/m2 FEW
04:12 -17.6 °C -18.2 °C 34347.6 hPa South 0.8 km/h 9 km/h 92% 12.7 mm WeatherDisplay:10.37 W/m2 RA
04:17 -17.6 °C -18.2 °C 34347.6 hPa SW 2.6 km/h 11.9 km/h 92% 12.7 mm WeatherDisplay:10.37 W/m2 RA
04:22 -17.6 °C -18.2 °C 34347.6 hPa SW 1.8 km/h 3.1 km/h 92% 12.7 mm WeatherDisplay:10.37 W/m2 FEW
04:27 -17.6 °C -18.2 °C 34347.6 hPa Calm   2.6 km/h 92% 12.7 mm WeatherDisplay:10.37 W/m2 FEW
04:32 -17.6 °C -18.2 °C 34347.6 hPa Calm     92% 12.7 mm WeatherDisplay:10.37 W/m2 FEW
04:37 -17.6 °C -18.2 °C 34347.6 hPa SE 0.3 km/h   92% 7.62 mm WeatherDisplay:10.37 W/m2 FEW
04:42 -17.6 °C -18.2 °C 34337.4 hPa SSE 2.6 km/h   92% 7.62 mm WeatherDisplay:10.37 W/m2 FEW
04:47 -17.6 °C -18.2 °C 34337.4 hPa South 9 km/h 15 km/h 92% 12.7 mm WeatherDisplay:10.37 W/m2 RA
04:52 -17.6 °C -18.2 °C 34337.4 hPa SSE 2.9 km/h 6 km/h 92% 12.7 mm WeatherDisplay:10.37 W/m2 RA
04:57 -17.6 °C -18.2 °C 34337.4 hPa Calm   6 km/h 92% 12.7 mm WeatherDisplay:10.37 W/m2 FEW
05:02 -17.6 °C -18.2 °C 34337.4 hPa SSE 0.8 km/h 6 km/h 92% 12.7 mm WeatherDisplay:10.37 W/m2 FEW
05:07 -17.6 °C -18.2 °C 34337.4 hPa Calm     92% 12.7 mm WeatherDisplay:10.37 W/m2 RA
05:17 -17.6 °C -18.2 °C 34337.4 hPa South 0.5 km/h 6 km/h 93% 12.7 mm WeatherDisplay:10.37 W/m2 RA
05:23 -17.6 °C -18.2 °C 34347.6 hPa Calm     92% 12.7 mm WeatherDisplay:10.37 W/m2 RA
05:25 -17.6 °C -18.2 °C 34337.4 hPa Calm     93% 12.7 mm WeatherDisplay:10.37 W/m2 RA
05:26 -17.6 °C -18.2 °C 34347.6 hPa Calm     92% 12.7 mm WeatherDisplay:10.37 W/m2 RA
05:36 -17.6 °C -18.2 °C 34337.4 hPa Calm     93% 12.7 mm WeatherDisplay:10.37 W/m2 FEW
05:39 -17.6 °C -18.2 °C 34337.4 hPa SSE 2.9 km/h 11.9 km/h 93% 12.7 mm WeatherDisplay:10.37 W/m2 FEW
05:44 -17.6 °C -18.2 °C 34337.4 hPa Calm     93% 12.7 mm WeatherDisplay:10.37 W/m2 FEW
05:49 -17.6 °C -18.2 °C 34337.4 hPa Calm   3.1 km/h 93% 12.7 mm WeatherDisplay:10.37 W/m2 FEW
05:54 -17.6 °C -18.2 °C 34337.4 hPa ENE 1.3 km/h 11.9 km/h 93% 12.7 mm WeatherDisplay:10.37 W/m2 FEW
05:59 -17.6 °C -18.2 °C 34327.3 hPa South 0.8 km/h 9 km/h 93% 12.7 mm WeatherDisplay:10.37 W/m2 FEW
06:04 -17.6 °C -18.2 °C 34327.3 hPa South 1.3 km/h   93% 7.62 mm WeatherDisplay:10.37 W/m2 FEW
06:09 -17.6 °C -18.2 °C 34327.3 hPa SSE 2.6 km/h 6 km/h 93% 7.62 mm WeatherDisplay:10.37 W/m2 FEW
06:14 -17.6 °C -18.2 °C 34327.3 hPa South 0.3 km/h 3.1 km/h 93% 7.62 mm WeatherDisplay:10.37 W/m2 FEW
06:19 -17.6 °C -18.2 °C 34327.3 hPa South 1 km/h 9 km/h 93% 0 mm WeatherDisplay:10.37 W/m2 FEW
06:24 -17.6 °C -18.2 °C 34327.3 hPa South 3.9 km/h 11.9 km/h 93% 7.62 mm WeatherDisplay:10.37 W/m2 RA
06:29 -17.6 °C -18.2 °C 34327.3 hPa South 0.3 km/h 3.1 km/h 92% 7.62 mm WeatherDisplay:10.37 W/m2 RA
06:34 -17.6 °C -18.2 °C 34327.3 hPa East 3.7 km/h 9 km/h 92% 7.62 mm WeatherDisplay:10.37 W/m2 FEW
06:39 -17.6 °C -18.2 °C 34327.3 hPa Calm     92% 7.62 mm WeatherDisplay:10.37 W/m2 FEW
06:44 -17.6 °C -18.2 °C 34327.3 hPa ENE 0.8 km/h 6 km/h 92% 7.62 mm WeatherDisplay:10.37 W/m2 FEW
06:49 -17.6 °C -18.2 °C 34313.7 hPa East 0.3 km/h 3.1 km/h 92% 7.62 mm WeatherDisplay:10.37 W/m2 FEW
06:54 -17.6 °C -18.2 °C 34313.7 hPa East 6.4 km/h 17.9 km/h 93% 7.62 mm WeatherDisplay:10.37 W/m2 FEW
06:59 -17.6 °C -18.2 °C 34313.7 hPa Calm   3.1 km/h 93% 7.62 mm WeatherDisplay:10.37 W/m2 FEW
07:04 -17.6 °C -18.2 °C 34313.7 hPa NE 1 km/h 9 km/h 93% 7.62 mm WeatherDisplay:10.37 W/m2 FEW
07:09 -17.6 °C -18.2 °C 34313.7 hPa SSE 3.7 km/h 9 km/h 92% 7.62 mm WeatherDisplay:10.37 W/m2 FEW
07:14 -17.6 °C -18.2 °C 34313.7 hPa Calm     92% 7.62 mm WeatherDisplay:10.37 W/m2 FEW
07:19 -17.6 °C -18.2 °C 34313.7 hPa Calm     92% 7.62 mm WeatherDisplay:10.37 W/m2 FEW
07:24 -17.6 °C -18.2 °C 34313.7 hPa South 0.3 km/h 5.1 km/h 92% 0 mm WeatherDisplay:10.37 W/m2 FEW
07:29 -17.6 °C -18.1 °C 34313.7 hPa SW 1.8 km/h 12.9 km/h 93% 0 mm WeatherDisplay:10.37 W/m2 FEW
07:34 -17.6 °C -18.1 °C 34313.7 hPa Calm     93% 0 mm WeatherDisplay:10.37 W/m2 FEW
07:39 -17.6 °C -18.2 °C 34313.7 hPa WNW 0.3 km/h 3.1 km/h 92% 0 mm WeatherDisplay:10.37 W/m2 FEW
07:44 -17.6 °C -18.1 °C 34313.7 hPa Calm   6 km/h 93% 0 mm WeatherDisplay:10.37 W/m2 FEW
07:49 -17.6 °C -18.2 °C 34313.7 hPa Calm     92% 0 mm WeatherDisplay:10.37 W/m2 FEW
07:54 -17.6 °C -18.1 °C 34313.7 hPa SSE 0.5 km/h 5.1 km/h 93% 0 mm WeatherDisplay:10.37 W/m2 FEW
07:59 -17.6 °C -18.2 °C 34313.7 hPa NNW 2.6 km/h 9 km/h 92% 0 mm WeatherDisplay:10.37 W/m2 FEW
08:04 -17.6 °C -18.1 °C 34313.7 hPa Calm     93% 0 mm WeatherDisplay:10.37 W/m2 FEW
08:09 -17.6 °C -18.1 °C 34313.7 hPa SSE 1.8 km/h 6 km/h 93% 0 mm WeatherDisplay:10.37 W/m2 FEW
08:14 -17.6 °C -18.1 °C 34313.7 hPa Calm   3.1 km/h 93% 0 mm WeatherDisplay:10.37 W/m2 FEW
08:19 -17.6 °C -18.2 °C 34313.7 hPa South 2.3 km/h 9 km/h 93% 0 mm WeatherDisplay:10.37 W/m2 FEW
08:24 -17.6 °C -18.1 °C 34313.7 hPa Calm   6 km/h 93% 0 mm WeatherDisplay:10.37 W/m2 FEW
08:29 -17.6 °C -18.2 °C 34313.7 hPa NW 0.3 km/h 3.1 km/h 93% 0 mm WeatherDisplay:10.37 W/m2 FEW
08:34 -17.6 °C -18.2 °C 34313.7 hPa ESE 0.5 km/h 5.1 km/h 93% 0 mm WeatherDisplay:10.37 W/m2 FEW
08:39 -17.6 °C -18.2 °C 34313.7 hPa SSW 1.6 km/h 9 km/h 93% 0 mm WeatherDisplay:10.37 W/m2 FEW
08:44 -17.6 °C -18.2 °C 34313.7 hPa Calm     93% 0 mm WeatherDisplay:10.37 W/m2 FEW
08:49 -17.6 °C -18.2 °C 34313.7 hPa SSE 1.6 km/h 12.9 km/h 93% 0 mm WeatherDisplay:10.37 W/m2 FEW
08:54 -17.6 °C -18.2 °C 34313.7 hPa Calm     93% 0 mm WeatherDisplay:10.37 W/m2 FEW
08:59 -17.6 °C -18.2 °C 34313.7 hPa South 0.3 km/h 3.1 km/h 93% 7.62 mm WeatherDisplay:10.37 W/m2 RA
09:04 -17.6 °C -18.2 °C 34313.7 hPa Calm     93% 7.62 mm WeatherDisplay:10.37 W/m2 RA
09:09 -17.6 °C -18.2 °C 34313.7 hPa Calm     93% 7.62 mm WeatherDisplay:10.37 W/m2 FEW
09:14 -17.6 °C -18.2 °C 34313.7 hPa Calm     93% 12.7 mm WeatherDisplay:10.37 W/m2 RA
09:19 -17.6 °C -18.2 °C 34313.7 hPa Calm     93% 12.7 mm WeatherDisplay:10.37 W/m2 RA
09:24 -17.6 °C -18.2 °C 34313.7 hPa WNW 1 km/h 6 km/h 93% 12.7 mm WeatherDisplay:10.37 W/m2 FEW
09:29 -17.6 °C -18.2 °C 34313.7 hPa Calm     93% 12.7 mm WeatherDisplay:10.37 W/m2 FEW
09:34 -17.6 °C -18.2 °C 34313.7 hPa Calm     93% 12.7 mm WeatherDisplay:10.37 W/m2 RA
09:39 -17.6 °C -18.2 °C 34303.6 hPa Calm     93% 12.7 mm WeatherDisplay:10.37 W/m2 RA
09:44 -17.6 °C -18.2 °C 34303.6 hPa Calm     93% 12.7 mm WeatherDisplay:10.37 W/m2 FEW
09:49 -17.6 °C -18.2 °C 34303.6 hPa Calm     93% 20.32 mm WeatherDisplay:10.37 W/m2 RA
09:54 -17.6 °C -18.2 °C 34303.6 hPa Calm     93% 25.4 mm WeatherDisplay:10.37 W/m2 RA
09:59 -17.6 °C -18.2 °C 34303.6 hPa Calm     93% 20.32 mm WeatherDisplay:10.37 W/m2 RA
10:04 -17.6 °C -18.2 °C 34303.6 hPa Calm     93% 20.32 mm WeatherDisplay:10.37 W/m2 FEW
10:09 -17.6 °C -18.2 °C 34303.6 hPa Calm     93% 25.4 mm WeatherDisplay:10.37 W/m2 RA
10:14 -17.6 °C -18.2 °C 34303.6 hPa Calm     93% 20.32 mm WeatherDisplay:10.37 W/m2 RA
10:19 -17.6 °C -18.2 °C 34313.7 hPa Calm     93% 20.32 mm WeatherDisplay:10.37 W/m2 FEW
10:24 -17.6 °C -18.2 °C 34313.7 hPa Calm     93% 20.32 mm WeatherDisplay:10.37 W/m2 FEW
10:29 -17.6 °C -18.2 °C 34313.7 hPa Calm     93% 20.32 mm WeatherDisplay:10.37 W/m2 FEW
10:34 -17.6 °C -18.1 °C 34313.7 hPa Calm     93% 20.32 mm WeatherDisplay:10.37 W/m2 RA
10:39 -17.6 °C -18.1 °C 34313.7 hPa Calm     93% 20.32 mm WeatherDisplay:10.37 W/m2 RA
10:44 -17.6 °C -18.1 °C 34303.6 hPa Calm     93% 20.32 mm WeatherDisplay:10.37 W/m2 FEW
10:49 -17.6 °C -18.2 °C 34303.6 hPa Calm     92% 12.7 mm WeatherDisplay:10.37 W/m2 FEW
10:54 -17.6 °C -18.2 °C 34303.6 hPa Calm     92% 12.7 mm WeatherDisplay:10.37 W/m2 FEW
10:59 -17.5 °C -18.2 °C 34303.6 hPa Calm     92% 12.7 mm WeatherDisplay:10.37 W/m2 FEW
11:04 -17.5 °C -18.2 °C 34303.6 hPa Calm     92% 12.7 mm WeatherDisplay:10.37 W/m2 FEW
11:09 -17.5 °C -18.2 °C 34303.6 hPa Calm     92% 7.62 mm WeatherDisplay:10.37 W/m2 FEW
11:14 -17.5 °C -18.2 °C 34303.6 hPa Calm     92% 7.62 mm WeatherDisplay:10.37 W/m2 FEW
11:19 -17.4 °C -18 °C 34303.6 hPa Calm     93% 7.62 mm WeatherDisplay:10.37 W/m2 FEW
11:24 -17.4 °C -18 °C 34303.6 hPa Calm     93% 7.62 mm WeatherDisplay:10.37 W/m2 FEW
11:29 -17.4 °C -18.1 °C 34313.7 hPa Calm     92% 7.62 mm WeatherDisplay:10.37 W/m2 FEW
11:34 -17.4 °C -18 °C 34313.7 hPa Calm     93% 0 mm WeatherDisplay:10.37 W/m2 FEW
11:39 -17.4 °C -18 °C 34313.7 hPa Calm     93% 0 mm WeatherDisplay:10.37 W/m2 FEW
11:44 -17.4 °C -18 °C 34313.7 hPa Calm     93% 0 mm WeatherDisplay:10.37 W/m2 FEW
11:50 -17.4 °C -18 °C 34313.7 hPa Calm     93% 7.62 mm WeatherDisplay:10.37 W/m2 RA
11:55 -17.4 °C -18 °C 34313.7 hPa Calm     93% 7.62 mm WeatherDisplay:10.37 W/m2 RA
12:00 -17.4 °C -18 °C 34313.7 hPa Calm     93% 7.62 mm WeatherDisplay:10.37 W/m2 FEW
12:05 -17.4 °C -18 °C 34313.7 hPa Calm     93% 12.7 mm WeatherDisplay:10.37 W/m2 RA
12:10 -17.4 °C -18 °C 34313.7 hPa Calm     93% 12.7 mm WeatherDisplay:10.37 W/m2 RA
12:15 -17.4 °C -18 °C 34313.7 hPa Calm     93% 12.7 mm WeatherDisplay:10.37 W/m2 FEW
12:20 -17.4 °C -18 °C 34313.7 hPa Calm     93% 12.7 mm WeatherDisplay:10.37 W/m2 FEW
12:25 -17.4 °C -18 °C 34313.7 hPa Calm     93% 12.7 mm WeatherDisplay:10.37 W/m2 FEW
12:30 -17.4 °C -17.9 °C 34313.7 hPa Calm     93% 12.7 mm WeatherDisplay:10.37 W/m2 FEW
12:35 -17.4 °C -17.9 °C 34313.7 hPa Calm     93% 12.7 mm WeatherDisplay:10.37 W/m2 FEW
12:40 -17.4 °C -18.1 °C 34313.7 hPa Calm     92% 12.7 mm WeatherDisplay:10.37 W/m2 FEW
12:45 -17.4 °C -18.1 °C 34313.7 hPa Calm     92% 12.7 mm WeatherDisplay:10.37 W/m2 FEW
12:50 -17.4 °C -17.9 °C 34327.3 hPa Calm     93% 7.62 mm WeatherDisplay:10.37 W/m2 FEW
12:55 -17.4 °C -17.9 °C 34327.3 hPa Calm     93% 7.62 mm WeatherDisplay:10.37 W/m2 FEW
13:00 -17.4 °C -17.9 °C 34327.3 hPa NNE 0.5 km/h 3.1 km/h 93% 7.62 mm WeatherDisplay:10.37 W/m2 FEW
13:05 -17.4 °C -18 °C 34327.3 hPa Calm     92% 0 mm WeatherDisplay:10.37 W/m2 FEW
13:10 -17.4 °C -18 °C 34327.3 hPa Calm     92% 0 mm WeatherDisplay:10.37 W/m2 FEW
13:15 -17.4 °C -18 °C 34327.3 hPa Calm     92% 0 mm WeatherDisplay:10.37 W/m2 FEW
13:20 -17.3 °C -18 °C 34327.3 hPa Calm     92% 0 mm WeatherDisplay:10.37 W/m2 FEW
13:25 -17.3 °C -18 °C 34327.3 hPa Calm     92% 0 mm WeatherDisplay:10.37 W/m2 FEW
13:30 -17.3 °C -18 °C 34327.3 hPa Calm     92% 0 mm WeatherDisplay:10.37 W/m2 FEW
13:35 -17.3 °C -17.9 °C 34327.3 hPa Calm     92% 0 mm WeatherDisplay:10.37 W/m2 FEW
13:40 -17.3 °C -17.9 °C 34327.3 hPa Calm     92% 0 mm WeatherDisplay:10.37 W/m2 FEW
13:45 -17.3 °C -17.9 °C 34327.3 hPa Calm     92% 0 mm WeatherDisplay:10.37 W/m2 FEW
13:50 -17.3 °C -17.9 °C 34327.3 hPa Calm     93% 0 mm WeatherDisplay:10.37 W/m2 FEW
13:55 -17.3 °C -17.8 °C 34327.3 hPa Calm     93% 0 mm WeatherDisplay:10.37 W/m2 FEW
14:00 -17.3 °C -17.8 °C 34327.3 hPa Calm     93% 0 mm WeatherDisplay:10.37 W/m2 FEW
14:05 -17.3 °C -17.8 °C 34327.3 hPa Calm   7.7 km/h 93% 0 mm WeatherDisplay:10.37 W/m2 FEW
14:10 -17.3 °C -17.8 °C 34327.3 hPa Calm     93% 0 mm WeatherDisplay:10.37 W/m2 FEW
14:15 -17.2 °C -17.8 °C 34327.3 hPa Calm     93% 0 mm WeatherDisplay:10.37 W/m2 FEW
14:20 -17.3 °C -17.8 °C 34327.3 hPa Calm     93% 0 mm WeatherDisplay:10.37 W/m2 FEW
14:25 -17.3 °C -17.8 °C 34327.3 hPa Calm     93% 0 mm WeatherDisplay:10.37 W/m2 FEW
14:30 -17.3 °C -17.8 °C 34327.3 hPa West 4.2 km/h 17.9 km/h 93% 0 mm WeatherDisplay:10.37 W/m2 FEW
14:35 -17.2 °C -17.8 °C 34327.3 hPa SSE 2.6 km/h 9 km/h 93% 0 mm WeatherDisplay:10.37 W/m2 FEW
14:40 -17.2 °C -17.8 °C 34327.3 hPa SW 0.5 km/h 6 km/h 93% 0 mm WeatherDisplay:10.37 W/m2 FEW
14:45 -17.3 °C -17.8 °C 34327.3 hPa West 1 km/h 6 km/h 93% 0 mm WeatherDisplay:10.37 W/m2 FEW
14:50 -17.3 °C -17.8 °C 34337.4 hPa WSW 1.6 km/h 6 km/h 93% 0 mm WeatherDisplay:10.37 W/m2 FEW
14:55 -17.3 °C -17.8 °C 34337.4 hPa West 3.7 km/h 11.9 km/h 93% 0 mm WeatherDisplay:10.37 W/m2 FEW
15:00 -17.2 °C -17.8 °C 34337.4 hPa ESE 0.3 km/h 3.1 km/h 93% 0 mm WeatherDisplay:10.37 W/m2 FEW
15:05 -17.2 °C -17.8 °C 34337.4 hPa Calm     93% 0 mm WeatherDisplay:10.37 W/m2 FEW
15:10 -17.2 °C -17.8 °C 34337.4 hPa WSW 1 km/h 9 km/h 93% 0 mm WeatherDisplay:10.37 W/m2 FEW
15:15 -17.2 °C -17.8 °C 34337.4 hPa Calm     93% 0 mm WeatherDisplay:10.37 W/m2 FEW
15:20 -17.2 °C -17.8 °C 34337.4 hPa SSW 1.3 km/h 6 km/h 93% 0 mm WeatherDisplay:10.37 W/m2 FEW
15:25 -17.3 °C -17.8 °C 34337.4 hPa WSW 6 km/h 11.9 km/h 93% 0 mm WeatherDisplay:10.37 W/m2 FEW
15:30 -17.2 °C -17.8 °C 34337.4 hPa West 3.1 km/h 15 km/h 93% 0 mm WeatherDisplay:10.37 W/m2 FEW
15:35 -17.2 °C -17.8 °C 34337.4 hPa Calm   3.1 km/h 93% 0 mm WeatherDisplay:10.37 W/m2 FEW
15:40 -17.2 °C -17.7 °C 34337.4 hPa SE 2.3 km/h 11.9 km/h 93% 0 mm WeatherDisplay:10.37 W/m2 FEW
15:45 -17.2 °C -17.8 °C 34337.4 hPa WSW 2.3 km/h 9 km/h 92% 0 mm WeatherDisplay:10.37 W/m2 FEW
15:50 -17.2 °C -17.8 °C 34347.6 hPa Calm     92% 0 mm WeatherDisplay:10.37 W/m2 FEW
15:55 -17.2 °C -17.8 °C 34337.4 hPa Calm   2.6 km/h 92% 0 mm WeatherDisplay:10.37 W/m2 FEW
16:00 -17.2 °C -17.8 °C 34347.6 hPa Calm     92% 0 mm WeatherDisplay:10.37 W/m2 FEW
16:05 -17.2 °C -17.8 °C 34337.4 hPa Calm     92% 0 mm WeatherDisplay:10.37 W/m2 FEW
16:10 -17.2 °C -17.8 °C 34337.4 hPa WNW 0.3 km/h 9 km/h 92% 0 mm WeatherDisplay:10.37 W/m2 FEW
16:15 -17.1 °C -17.8 °C 34337.4 hPa WNW 2.9 km/h 9 km/h 92% 0 mm WeatherDisplay:10.37 W/m2 FEW
16:20 -17.1 °C -17.8 °C 34347.6 hPa WSW 2.1 km/h 9 km/h 92% 0 mm WeatherDisplay:10.37 W/m2 FEW
16:25 -17.1 °C -17.8 °C 34347.6 hPa WSW 2.3 km/h 9 km/h 92% 0 mm WeatherDisplay:10.37 W/m2 FEW
16:30 -17.1 °C -17.7 °C 34347.6 hPa WNW 2.6 km/h 9 km/h 92% 0 mm WeatherDisplay:10.37 W/m2 FEW
16:35 -17.1 °C -17.7 °C 34347.6 hPa SW 3.1 km/h 11.9 km/h 92% 0 mm WeatherDisplay:10.37 W/m2 FEW
16:40 -17.1 °C -17.7 °C 34347.6 hPa South 1 km/h 9 km/h 92% 0 mm WeatherDisplay:10.37 W/m2 FEW
16:45 -17.1 °C -17.7 °C 34347.6 hPa Calm     93% 0 mm WeatherDisplay:10.37 W/m2 FEW
16:50 -17.1 °C -17.7 °C 34347.6 hPa West 2.9 km/h 9 km/h 93% 0 mm WeatherDisplay:10.37 W/m2 FEW
16:55 -17.1 °C -17.7 °C 34347.6 hPa Calm     93% 0 mm WeatherDisplay:10.37 W/m2 FEW
17:00 -17.1 °C -17.7 °C 34347.6 hPa Calm     92% 0 mm WeatherDisplay:10.37 W/m2 FEW
17:05 -17.1 °C -17.7 °C 34347.6 hPa Calm     93% 0 mm WeatherDisplay:10.37 W/m2 FEW
17:10 -17.1 °C -17.6 °C 34361.1 hPa West 2.3 km/h 15.6 km/h 93% 0 mm WeatherDisplay:10.37 W/m2 FEW
17:15 -17.1 °C -17.6 °C 34361.1 hPa WSW 1.8 km/h 3.1 km/h 93% 0 mm WeatherDisplay:10.37 W/m2 FEW
17:20 -17.1 °C -17.6 °C 34361.1 hPa Calm     93% 0 mm WeatherDisplay:10.37 W/m2 FEW
17:25 -17.1 °C -17.6 °C 34361.1 hPa WSW 2.3 km/h 9 km/h 93% 0 mm WeatherDisplay:10.37 W/m2 FEW
17:30 -17.1 °C -17.6 °C 34361.1 hPa Calm   3.1 km/h 93% 0 mm WeatherDisplay:10.37 W/m2 FEW
17:35 -17.1 °C -17.6 °C 34361.1 hPa SSW 2.1 km/h 2.6 km/h 93% 0 mm WeatherDisplay:10.37 W/m2 FEW
17:40 -17.1 °C -17.6 °C 34371.3 hPa West 2.3 km/h 9 km/h 93% 0 mm WeatherDisplay:10.37 W/m2 FEW
17:45 -17.1 °C -17.6 °C 34371.3 hPa WNW 2.6 km/h 11.9 km/h 93% 0 mm WeatherDisplay:10.37 W/m2 FEW
17:50 -17.1 °C -17.6 °C 34371.3 hPa WNW 2.6 km/h 9 km/h 93% 0 mm WeatherDisplay:10.37 W/m2 FEW
17:55 -17.1 °C -17.6 °C 34371.3 hPa Calm     93% 0 mm WeatherDisplay:10.37 W/m2 FEW
18:00 -17.1 °C -17.7 °C 34371.3 hPa Calm     92% 0 mm WeatherDisplay:10.37 W/m2 FEW
18:18 -17.1 °C -17.7 °C 34384.8 hPa West 2.1 km/h 9 km/h 92% 0 mm WeatherDisplay:10.37 W/m2 FEW
18:21 -17.1 °C -17.7 °C 34384.8 hPa NNE 1 km/h 6 km/h 92% 0 mm WeatherDisplay:10.37 W/m2 FEW
18:26 -17.1 °C -17.7 °C 34384.8 hPa West 4.7 km/h 9 km/h 93% 0 mm WeatherDisplay:10.37 W/m2 FEW
18:30 -17.1 °C -17.7 °C 34384.8 hPa Calm     92% 0 mm WeatherDisplay:10.37 W/m2 FEW
18:37 -17.1 °C -17.6 °C 34384.8 hPa WSW 1.6 km/h 9 km/h 93% 0 mm WeatherDisplay:10.37 W/m2 FEW
18:40 -17.1 °C -17.7 °C 34384.8 hPa SW 0.8 km/h 6 km/h 93% 0 mm WeatherDisplay:10.37 W/m2 FEW
18:45 -17.1 °C -17.7 °C 34384.8 hPa Calm     92% 0 mm WeatherDisplay:10.37 W/m2 FEW
18:50 -17.1 °C -17.7 °C 34384.8 hPa Calm     92% 0 mm WeatherDisplay:10.37 W/m2 FEW
18:55 -17.1 °C -17.7 °C 34395 hPa Calm   6 km/h 92% 0 mm WeatherDisplay:10.37 W/m2 FEW
19:02 -17.1 °C -17.7 °C 34395 hPa Calm   3.1 km/h 92% 0 mm WeatherDisplay:10.37 W/m2 FEW
19:07 -17.1 °C -17.7 °C 34395 hPa NW 0.3 km/h 6 km/h 92% 0 mm WeatherDisplay:10.37 W/m2 FEW
19:12 -17.1 °C -17.7 °C 34395 hPa SW 1.3 km/h 6 km/h 92% 0 mm WeatherDisplay:10.37 W/m2 FEW
19:18 -17.1 °C -17.7 °C 34395 hPa Calm   3.1 km/h 92% 0 mm WeatherDisplay:10.37 W/m2 FEW
19:23 -17.1 °C -17.7 °C 34395 hPa Calm     92% 0 mm WeatherDisplay:10.37 W/m2 FEW
19:28 -17.1 °C -17.7 °C 34395 hPa Calm     92% 0 mm WeatherDisplay:10.37 W/m2 FEW
19:33 -17.1 °C -17.7 °C 34395 hPa WNW 0.3 km/h 2.6 km/h 92% 0 mm WeatherDisplay:10.37 W/m2 FEW
19:38 -17.1 °C -17.7 °C 34395 hPa Calm     92% 0 mm WeatherDisplay:10.37 W/m2 FEW
19:44 -17.1 °C -17.7 °C 34395 hPa Calm     92% 0 mm WeatherDisplay:10.37 W/m2 FEW
19:49 -17.1 °C -17.7 °C 34395 hPa West 0.8 km/h 7.7 km/h 92% 0 mm WeatherDisplay:10.37 W/m2 FEW
19:54 -17.1 °C -17.7 °C 34395 hPa SE 1 km/h 3.1 km/h 92% 0 mm WeatherDisplay:10.37 W/m2 FEW
20:08 -17.1 °C -17.7 °C 34405.1 hPa SE 0.8 km/h 3.1 km/h 92% 0 mm WeatherDisplay:10.37 W/m2 FEW
20:18 -17 °C -17.7 °C 34405.1 hPa WNW 2.6 km/h 9 km/h 92% 0 mm WeatherDisplay:10.37 W/m2 FEW
20:21 -17 °C -17.7 °C 34405.1 hPa Calm     92% 0 mm WeatherDisplay:10.37 W/m2 FEW
20:26 -17 °C -17.7 °C 34395 hPa West 4.2 km/h 15 km/h 92% 0 mm WeatherDisplay:10.37 W/m2 FEW
20:31 -17 °C -17.7 °C 34395 hPa SSW 0.3 km/h 3.1 km/h 92% 0 mm WeatherDisplay:10.37 W/m2 FEW
20:36 -17 °C -17.7 °C 34405.1 hPa Calm   2.6 km/h 92% 0 mm WeatherDisplay:10.37 W/m2 FEW
20:41 -17 °C -17.7 °C 34405.1 hPa West 2.3 km/h 9 km/h 92% 0 mm WeatherDisplay:10.37 W/m2 FEW
20:46 -17 °C -17.7 °C 34405.1 hPa West 4.2 km/h 9 km/h 92% 0 mm WeatherDisplay:10.37 W/m2 FEW
20:51 -17 °C -17.7 °C 34405.1 hPa Calm     92% 0 mm WeatherDisplay:10.37 W/m2 FEW
20:56 -17 °C -17.6 °C 34405.1 hPa Calm     92% 0 mm WeatherDisplay:10.37 W/m2 FEW
21:01 -17 °C -17.6 °C 34405.1 hPa Calm     92% 0 mm WeatherDisplay:10.37 W/m2 FEW
21:06 -17 °C -17.7 °C 34405.1 hPa WSW 2.6 km/h 6 km/h 92% 0 mm WeatherDisplay:10.37 W/m2 FEW
21:11 -17.1 °C -17.7 °C 34395 hPa Calm     92% 0 mm WeatherDisplay:10.37 W/m2 FEW
21:12 -17.1 °C -17.7 °C 34395 hPa SSW 3.7 km/h 9 km/h 92% 0 mm WeatherDisplay:10.37 W/m2 FEW
21:17 -17.1 °C -17.7 °C 34405.1 hPa WSW 1.3 km/h 5.1 km/h 92% 0 mm WeatherDisplay:10.37 W/m2 FEW
21:22 -17.1 °C -17.7 °C 34405.1 hPa Calm     92% 0 mm WeatherDisplay:10.37 W/m2 FEW
21:27 -17.1 °C -17.7 °C 34395 hPa Calm     92% 0 mm WeatherDisplay:10.37 W/m2 FEW
21:32 -17.1 °C -17.7 °C 34395 hPa Calm     92% 0 mm WeatherDisplay:10.37 W/m2 FEW
21:37 -17.1 °C -17.7 °C 34395 hPa SE 2.1 km/h 9 km/h 92% 0 mm WeatherDisplay:10.37 W/m2 FEW
21:42 -17 °C -17.7 °C 34395 hPa Calm   3.1 km/h 92% 0 mm WeatherDisplay:10.37 W/m2 FEW
21:47 -17 °C -17.7 °C 34405.1 hPa Calm   9 km/h 92% 0 mm WeatherDisplay:10.37 W/m2 FEW
21:52 -17 °C -17.6 °C 34405.1 hPa Calm   9 km/h 92% 0 mm WeatherDisplay:10.37 W/m2 FEW
21:57 -17 °C -17.6 °C 34405.1 hPa SSE 3.4 km/h 9 km/h 92% 0 mm WeatherDisplay:10.37 W/m2 FEW
22:02 -17 °C -17.6 °C 34405.1 hPa West 3.7 km/h 3.7 km/h 92% 0 mm WeatherDisplay:10.37 W/m2 FEW
22:07 -17 °C -17.6 °C 34405.1 hPa West 1.8 km/h 9 km/h 92% 0 mm WeatherDisplay:10.37 W/m2 FEW
22:12 -17 °C -17.6 °C 34418.7 hPa SSE 3.9 km/h 9 km/h 92% 0 mm WeatherDisplay:10.37 W/m2 FEW
22:17 -17 °C -17.7 °C 34418.7 hPa Calm   6 km/h 92% 0 mm WeatherDisplay:10.37 W/m2 FEW
22:22 -17 °C -17.7 °C 34418.7 hPa SSE 2.9 km/h 9 km/h 92% 0 mm WeatherDisplay:10.37 W/m2 FEW
22:27 -17 °C -17.7 °C 34418.7 hPa Calm   3.1 km/h 92% 0 mm WeatherDisplay:10.37 W/m2 FEW
22:32 -17 °C -17.7 °C 34428.8 hPa WNW 0.3 km/h   92% 0 mm WeatherDisplay:10.37 W/m2 FEW
22:37 -17 °C -17.7 °C 34428.8 hPa Calm     92% 0 mm WeatherDisplay:10.37 W/m2 FEW
22:42 -17 °C -17.6 °C 34428.8 hPa Calm     92% 0 mm WeatherDisplay:10.37 W/m2 FEW
22:47 -17 °C -17.7 °C 34428.8 hPa Calm     92% 0 mm WeatherDisplay:10.37 W/m2 FEW
22:52 -17 °C -17.7 °C 34442.4 hPa West 0.3 km/h 6 km/h 92% 0 mm WeatherDisplay:10.37 W/m2 FEW
22:57 -17.1 °C -17.7 °C 34428.8 hPa West 0.8 km/h 3.1 km/h 92% 0 mm WeatherDisplay:10.37 W/m2 FEW
23:02 -17.1 °C -17.7 °C 34442.4 hPa Calm     92% 0 mm WeatherDisplay:10.37 W/m2 FEW
23:07 -17.1 °C -17.7 °C 34442.4 hPa Calm     92% 0 mm WeatherDisplay:10.37 W/m2 FEW
23:12 -17.1 °C -17.7 °C 34442.4 hPa WSW 4.7 km/h 6 km/h 92% 0 mm WeatherDisplay:10.37 W/m2 FEW
23:17 -17 °C -17.7 °C 34442.4 hPa Calm     92% 0 mm WeatherDisplay:10.37 W/m2 FEW
23:22 -17.1 °C -17.7 °C 34442.4 hPa Calm   3.1 km/h 92% 0 mm WeatherDisplay:10.37 W/m2 FEW
23:27 -17.1 °C -17.7 °C 34442.4 hPa Calm     92% 0 mm WeatherDisplay:10.37 W/m2 FEW
23:32 -17.1 °C -17.7 °C 34442.4 hPa WSW 0.3 km/h 6 km/h 92% 0 mm WeatherDisplay:10.37 W/m2 FEW
23:37 -17.1 °C -17.7 °C 34442.4 hPa Calm     92% 0 mm WeatherDisplay:10.37 W/m2 FEW
23:42 -17.1 °C -17.7 °C 34442.4 hPa Calm   6 km/h 92% 0 mm WeatherDisplay:10.37 W/m2 FEW
23:47 -17.1 °C -17.7 °C 34442.4 hPa Calm     92% 0 mm WeatherDisplay:10.37 W/m2 FEW
23:52 -17.1 °C -17.7 °C 34442.4 hPa Calm     92% 0 mm WeatherDisplay:10.37 W/m2 FEW
23:57 -17.1 °C -17.7 °C 34442.4 hPa WSW 1.3 km/h 9 km/h 92% 0 mm WeatherDisplay:10.37 W/m2 FEW
Tuulensuunkaari, Veikkola, Suomi
Compliments of Weather Underground - 2.5 mb